Starlink 11507

operational
NORAD ID: 62519 Int'l Des: 2025-004 Owner: SPXS Country: US Constellation: starlink
LEOCIRCULAR

关于 Starlink 11507

正在加载描述...

实时位置

正在加载3D地球...

即将过境

高度历史

Altitude vs Time

uPlot chart will show altitude changes over time

两行轨道根数

1 62519U 25004J 25261.61126756 .00059543 00000-0 46329-3 0 9997
2 62519 43.0000 28.0880 0002135 258.6175 101.4452 15.70885783 40141
Epoch: Sep 18, 2025 • Age: 18 hours

当前状态

高度 356.3 km
速度 7.70 km/s
星下点 -2.44°S, 112.13°W
发射日期 Jan 8, 2025
运行时间 0.6 years
类型 internet

技术详情

分类 Payload
质量 960.00 kg
干质量 910.00 kg
总质量 960.00 kg
长度 0.30 m
直径 4.10 m
跨度 29.00 m
形状 Box + pan
制造商 SPXS
平台类型 Starlink V2MD
阶段状态 In Orbit
所有者/国家 SPXS/US

大型星座

Loading constellations...